Location: *
(48.8667°N, 2.3331°E)
Time: 18:29:32
(UTC+00:00)

Cosmos 1656 Rocket - Pass Details

Date: 09 April 2020
Orbit: 796 x 846 km, 71.1° (Epoch: 01 June)

Event Time Altitude Azimuth Distance (km) Brightness Sun altitude
Rises 19:03:18 0° 330° (NNW) 3,411 7.7 -5.4°
Reaches altitude 10° 19:05:47 10° 328° (NNW) 2,467 7.0 -5.8°
Maximum altitude 19:11:24 69° 246° (WSW) 892 4.1 -6.7°
Drops below altitude 10° 19:16:55 10° 164° (SSE) 2,421 5.7 -7.5°
Sets 19:19:20 0° 162° (SSE) 3,342 6.4 -7.9°
